Wind_Speed
19 18 17 16 15 14 12 10 10 9 8 6 5 5 4 4 4 5 5 6 7 7 7 8 8 8 7 7 8 9 11 13 15 16 18 19 21 21 21 21 21 21
21 20 20 19 17 16 14 13 12 11 10 9 7 7 7 6 5 5 6 6 7 7 8 8 8 8 8 8 8 9 10 12 14 15 17 19 20 21 21 21 21 21
23 23 22 21 19 18 17 16 15 14 13 11 10 10 9 8 7 7 7 7 7 8 8 8 8 8 9 8 8 8 9 11 13 14 16 18 19 20 21 20 20 20
25 25 24 23 22 21 20 19 18 17 15 13 12 13 12 11 10 9 9 8 8 9 9 9 9 9 9 9 9 9 9 10 11 13 15 16 18 19 20 20 19 19
25 25 25 25 24 24 23 22 20 19 18 16 15 16 15 13 12 12 11 10 10 10 10 10 10 10 10 10 10 10 10 9 10 12 13 15 16 17 19 19 19 18
26 26 26 26 26 26 25 24 23 22 21 19 19 19 18 16 15 14 13 12 12 12 12 11 11 11 11 11 11 11 11 10 10 11 12 14 15 16 17 18 18 18
28 28 27 26 26 26 26 25 25 24 23 22 22 21 21 19 17 17 16 15 14 13 13 12 12 12 11 11 12 12 12 11 11 11 12 13 14 15 16 17 17 17
27 27 27 28 28 28 27 26 26 26 25 25 24 23 22 21 20 19 18 17 16 15 14 14 13 13 12 12 13 13 13 13 12 12 12 13 13 14 15 16 16 17
27 27 28 28 28 29 28 28 27 27 27 26 25 24 24 23 22 21 21 19 18 17 16 16 15 14 13 13 13 14 14 14 14 14 13 14 14 14 14 15 15 16
27 28 28 29 29 29 29 29 28 29 28 27 26 26 25 25 24 23 22 21 20 19 18 18 17 17 15 14 14 15 16 16 16 16 15 15 15 15 15 15 15 15
28 29 30 30 30 30 30 29 29 29 29 28 27 27 27 26 25 24 23 22 22 21 20 20 19 19 17 16 16 16 17 17 18 18 18 17 17 17 17 16 16 16
28 30 31 31 31 31 30 30 29 30 29 28 28 28 28 27 26 26 25 24 23 22 22 22 21 20 19 18 17 17 18 19 20 20 20 19 19 19 19 19 18 18
28 30 32 32 31 31 31 30 30 30 30 29 28 28 28 28 27 27 26 25 24 24 24 24 23 22 21 20 19 19 20 20 21 21 21 21 21 21 20 21 20 20
27 29 30 31 32 31 31 31 32 32 31 31 30 29 29 29 28 28 27 26 26 26 26 26 25 24 23 21 21 21 22 22 22 23 23 23 23 22 22 22 23 22
25 26 28 30 31 32 32 32 32 33 33 33 32 31 31 30 29 29 28 28 28 28 27 27 27 26 25 23 23 23 23 24 24 23 24 24 24 24 24 24 24 24
26 26 27 28 30 32 32 32 32 33 34 35 34 33 33 32 31 31 31 30 30 30 29 29 29 28 26 26 25 25 25 25 25 25 25 25 25 25 25 25 25 26
28 27 27 27 29 30 32 32 32 34 35 36 36 35 35 35 34 33 33 32 31 31 31 31 31 30 28 28 27 27 27 27 27 27 27 27 26 27 27 27 27 27
29 28 28 28 28 29 30 32 33 34 35 36 37 37 36 36 36 36 35 34 33 33 33 34 33 32 30 30 29 29 29 29 28 28 28 28 28 27 28 28 28 28
31 30 29 29 28 28 29 31 33 34 35 37 37 37 37 37 38 37 37 37 36 36 36 36 35 34 33 31 31 31 31 31 31 31 30 30 29 29 29 30 30 30
33 32 31 30 29 29 29 31 33 34 35 36 37 37 37 38 38 38 38 38 38 38 38 37 37 36 35 33 32 33 33 33 33 33 33 32 31 31 31 31 32 32
35 33 32 32 31 31 31 31 32 34 34 35 36 37 38 38 38 38 38 38 39 39 39 39 39 39 38 36 35 35 35 35 36 36 35 34 33 33 33 33 34 34
36 35 34 33 33 33 32 32 32 34 34 35 36 37 38 38 38 39 39 39 39 39 40 40 40 41 40 38 37 37 37 38 39 39 38 37 35 34 35 35 36 37
38 37 35 35 34 34 34 33 33 34 35 36 36 37 38 38 38 39 39 38 38 39 40 41 40 41 41 40 39 40 40 41 42 42 40 38 37 37 37 38 38 39
40 39 37 36 36 36 35 34 33 34 35 36 37 38 38 39 39 39 39 40 39 39 40 41 41 41 43 42 42 42 43 44 44 44 43 41 39 39 39 40 40 41
42 41 39 38 37 37 36 35 34 35 35 36 37 38 39 39 39 39 40 41 41 40 40 41 41 41 42 43 43 44 45 45 46 46 44 41 39 39 40 41 41 42
44 43 41 40 39 39 37 36 36 36 36 36 36 38 39 39 39 39 40 41 41 41 41 42 42 42 43 43 43 43 43 44 45 45 42 40 38 39 40 41 41 40
Wind_Direction
205 207 210 213 215 219 222 224 229 235 238 240 250 265 276 295 308 312 316 318 320 324 327 331 335 339 342 350 360 7 10 11 12 15 18 20 18 18 17 17 15 12
213 214 216 217 219 222 225 227 231 235 237 237 243 254 264 273 283 291 299 304 308 311 315 320 323 327 330 335 345 355 4 7 7 9 13 16 16 15 15 14 13 10
218 219 220 220 222 225 227 231 233 235 237 236 239 249 256 261 268 276 284 293 298 299 303 307 312 316 319 323 330 340 353 0 1 3 7 11 13 13 12 12 11 8
221 222 222 222 223 226 228 231 233 235 237 236 238 245 249 254 260 265 272 280 285 288 292 296 302 306 309 311 317 326 338 349 353 356 359 4 8 9 9 9 8 6
220 222 223 224 224 226 228 229 232 234 234 235 237 242 247 250 254 259 264 269 274 279 284 288 293 297 300 303 306 313 322 333 343 347 350 355 0 4 6 6 5 3
218 220 222 223 225 226 228 228 230 232 232 232 234 239 244 246 250 255 258 260 266 271 277 283 287 291 294 297 300 303 309 317 327 334 339 344 350 356 0 2 2 360
219 220 220 222 224 225 227 228 229 231 232 232 233 237 241 244 247 251 253 256 260 265 271 277 281 285 289 291 294 296 299 304 312 319 325 330 337 345 352 356 358 357
223 224 223 223 223 224 225 226 228 231 232 234 235 238 241 244 246 248 251 253 256 261 266 271 276 279 283 287 288 290 292 294 299 303 310 315 323 331 339 346 351 353
229 228 228 228 228 228 227 227 228 230 233 235 237 239 242 245 247 249 251 253 255 259 263 267 271 274 277 281 283 285 287 288 289 292 297 303 308 316 324 332 339 345
236 234 233 232 232 232 232 232 232 233 234 236 237 239 242 245 247 249 252 253 256 260 262 265 268 271 274 276 278 280 283 284 285 286 288 292 297 302 309 317 324 332
240 240 239 237 236 235 235 234 235 237 238 239 239 240 242 244 246 248 251 253 256 259 262 264 266 269 272 273 275 277 279 280 281 282 283 285 288 293 298 304 310 316
240 241 242 242 241 240 239 237 237 238 240 241 242 242 244 245 246 248 250 252 255 257 260 262 264 267 269 271 273 274 276 277 278 279 280 281 283 286 290 294 299 304
239 241 244 246 246 244 243 242 240 240 240 241 242 244 245 246 247 249 250 252 253 255 257 260 261 264 266 268 269 271 273 274 275 277 278 279 280 282 285 288 291 295
239 242 245 248 250 249 247 245 244 244 242 241 241 242 244 246 247 249 249 250 252 253 255 258 260 262 264 265 266 268 269 271 273 275 276 277 278 279 281 283 287 290
240 241 243 247 251 252 251 248 247 246 246 244 242 242 243 244 246 247 248 248 250 251 253 256 258 259 261 263 265 265 267 269 271 273 275 276 276 277 278 279 282 285
240 241 241 243 246 251 253 252 250 248 248 247 245 244 243 243 244 246 247 247 249 250 252 254 256 257 259 261 263 264 266 268 270 272 273 274 275 276 276 277 279 281
241 242 242 242 243 247 251 253 252 250 249 249 249 247 245 244 244 244 245 246 248 249 251 253 254 256 257 259 261 263 264 266 268 269 270 272 273 275 276 277 278 279
241 243 244 245 243 244 247 250 252 252 251 251 250 249 248 247 246 245 245 246 246 248 250 252 253 255 256 257 259 261 262 264 265 267 268 269 271 273 275 277 278 279
243 244 246 246 246 245 245 246 249 250 251 252 252 252 251 249 249 248 247 247 247 247 249 251 253 254 255 256 258 260 261 263 264 265 266 267 269 271 273 275 276 278
243 244 246 248 248 247 245 245 246 248 249 251 253 253 253 251 251 251 250 249 249 249 250 251 253 254 255 255 257 259 261 262 263 263 264 265 267 269 272 274 275 277
242 244 246 248 249 249 248 247 247 248 249 250 251 252 253 253 253 253 252 251 251 252 252 253 254 255 256 256 256 258 260 262 262 263 263 264 266 269 270 273 274 276
241 244 245 248 250 251 252 252 251 251 252 250 250 250 251 252 253 253 253 253 253 254 255 256 256 257 257 257 256 257 258 260 261 262 263 264 266 268 270 272 274 276
241 243 245 248 250 252 254 255 256 256 255 254 251 250 250 250 251 252 253 253 253 254 255 257 258 259 260 259 258 257 258 259 260 261 263 264 266 267 269 271 273 275
241 242 245 247 250 252 254 256 257 258 258 257 256 254 252 251 250 251 252 253 252 252 254 256 258 259 260 260 258 257 258 259 260 262 263 265 266 268 269 271 272 274
242 243 245 247 249 252 254 256 258 259 259 260 260 258 256 255 252 251 251 253 254 253 254 256 258 259 259 259 259 258 258 260 261 263 266 268 269 270 271 272 273 275
243 244 245 247 249 252 254 257 258 260 262 262 263 262 260 258 257 254 253 253 254 255 255 256 257 258 259 260 261 262 262 263 265 267 270 273 274 274 274 275 276 278
Height
11023 11024 11025 11027 11028 11029 11030 11031 11032 11033 11033 11034 11034 11035 11035 11035 11035 11035 11035 11034 11034 11034 11034 11034 11034 11034 11034 11034 11033 11033 11032 11032 11031 11031 11030 11029 11028 11027 11026 11024 11023 11021
11021 11022 11024 11025 11026 11028 11029 11030 11031 11031 11032 11033 11034 11034 11034 11034 11034 11034 11034 11034 11034 11034 11034 11034 11034 11034 11034 11034 11033 11033 11032 11032 11031 11031 11030 11030 11029 11028 11027 11025 11024 11022
11019 11020 11022 11023 11025 11026 11028 11028 11029 11030 11031 11032 11033 11033 11033 11033 11034 11034 11034 11034 11034 11034 11034 11034 11034 11034 11034 11034 11033 11033 11033 11032 11031 11031 11030 11030 11029 11028 11027 11026 11024 11023
11016 11018 11020 11022 11023 11024 11025 11026 11028 11029 11029 11031 11031 11031 11032 11032 11033 11033 11033 11034 11034 11033 11033 11033 11033 11033 11033 11033 11033 11033 11032 11032 11032 11031 11031 11030 11029 11029 11027 11026 11025 11024
11014 11016 11018 11019 11021 11022 11023 11025 11026 11027 11028 11029 11030 11030 11030 11031 11032 11032 11033 11033 11033 11033 11032 11032 11032 11033 11033 11033 11032 11032 11032 11032 11032 11031 11030 11030 11029 11029 11028 11027 11026 11024
11012 11013 11015 11017 11018 11019 11021 11022 11024 11025 11026 11027 11027 11028 11029 11029 11030 11031 11031 11032 11032 11032 11032 11032 11032 11032 11032 11032 11032 11032 11031 11031 11031 11031 11030 11030 11029 11029 11028 11027 11026 11025
11009 11011 11012 11014 11015 11017 11019 11020 11021 11022 11023 11025 11025 11026 11027 11028 11029 11029 11030 11030 11030 11030 11030 11030 11031 11031 11031 11031 11031 11030 11030 11030 11030 11030 11030 11029 11029 11029 11028 11027 11026 11025
11008 11009 11010 11011 11013 11014 11016 11017 11019 11020 11021 11022 11023 11024 11025 11026 11027 11027 11028 11028 11029 11029 11029 11029 11029 11029 11030 11030 11029 11029 11029 11029 11029 11029 11029 11029 11028 11028 11027 11027 11026 11025
11006 11007 11008 11009 11010 11012 11013 11015 11016 11017 11018 11020 11021 11022 11023 11024 11025 11025 11026 11027 11027 11027 11027 11027 11028 11028 11028 11028 11028 11028 11028 11028 11028 11028 11028 11028 11027 11027 11026 11026 11026 11025
11004 11005 11006 11007 11008 11009 11011 11012 11014 11015 11016 11017 11019 11020 11020 11021 11022 11023 11024 11025 11025 11025 11026 11026 11026 11026 11027 11027 11027 11027 11027 11027 11027 11027 11027 11027 11026 11026 11025 11025 11025 11024
11002 11003 11004 11004 11005 11007 11008 11010 11011 11012 11013 11014 11016 11017 11018 11019 11020 11021 11022 11023 11023 11023 11023 11024 11024 11024 11025 11025 11025 11025 11025 11025 11025 11025 11025 11026 11025 11025 11024 11023 11023 11023
11000 11000 11001 11002 11003 11004 11006 11007 11008 11009 11010 11012 11013 11014 11015 11016 11017 11018 11019 11020 11021 11021 11021 11021 11022 11022 11022 11023 11023 11023 11023 11023 11023 11023 11023 11023 11023 11023 11022 11022 11021 11021
10998 10998 10999 10999 11001 11002 11003 11005 11005 11006 11007 11009 11010 11011 11012 11013 11014 11015 11017 11018 11018 11018 11018 11019 11019 11019 11020 11020 11021 11021 11021 11020 11020 11020 11021 11021 11021 11021 11021 11020 11019 11019
10995 10996 10997 10997 10998 11000 11001 11002 11003 11003 11004 11005 11007 11008 11009 11010 11011 11012 11014 11014 11015 11015 11016 11016 11016 11017 11017 11018 11018 11018 11018 11018 11018 11018 11018 11018 11019 11019 11019 11018 11017 11017
10992 10994 10995 10995 10996 10997 10998 10999 11000 11000 11001 11002 11003 11004 11005 11007 11008 11009 11010 11011 11012 11012 11013 11013 11013 11014 11015 11015 11015 11015 11015 11015 11015 11016 11015 11015 11016 11016 11016 11016 11015 11014
10989 10991 10992 10993 10994 10994 10995 10996 10997 10998 10998 10999 11000 11001 11002 11003 11004 11005 11006 11007 11008 11009 11009 11010 11010 11011 11012 11012 11012 11012 11012 11012 11013 11013 11013 11013 11013 11013 11013 11013 11012 11012
10986 10987 10988 10989 10991 10991 10992 10993 10994 10995 10995 10995 10997 10998 10999 10999 11000 11001 11002 11003 11005 11005 11005 11006 11006 11007 11008 11009 11009 11009 11009 11009 11009 11010 11010 11010 11010 11010 11009 11010 11009 11009
10982 10984 10985 10986 10987 10988 10989 10989 10990 10992 10992 10992 10993 10994 10995 10996 10997 10998 10998 10999 11001 11001 11001 11002 11002 11004 11005 11005 11006 11006 11006 11006 11006 11006 11006 11006 11006 11007 11006 11006 11006 11006
10979 10980 10981 10982 10984 10985 10985 10986 10987 10987 10988 10988 10989 10991 10992 10993 10993 10994 10995 10996 10997 10997 10997 10998 10999 11000 11001 11002 11003 11002 11002 11003 11002 11002 11002 11003 11003 11003 11003 11003 11002 11002
10975 10977 10978 10979 10980 10981 10982 10982 10982 10983 10984 10985 10986 10987 10988 10989 10990 10991 10992 10993 10993 10993 10994 10994 10995 10996 10997 10998 10999 10999 10999 10999 10999 10998 10999 10999 11000 11000 11000 11000 10999 10999
10971 10973 10974 10975 10976 10976 10977 10978 10979 10979 10980 10981 10982 10983 10984 10985 10987 10988 10989 10989 10990 10990 10990 10991 10991 10992 10993 10995 10996 10995 10995 10995 10994 10994 10995 10996 10997 10997 10997 10996 10996 10995
10968 10969 10971 10971 10972 10972 10973 10974 10975 10976 10976 10977 10978 10979 10980 10981 10983 10983 10984 10986 10987 10987 10987 10987 10988 10988 10989 10991 10992 10992 10991 10990 10990 10990 10991 10992 10993 10994 10993 10993 10992 10992
10964 10965 10967 10967 10968 10969 10970 10971 10972 10972 10972 10973 10974 10975 10975 10977 10978 10979 10980 10982 10983 10984 10983 10984 10984 10984 10985 10987 10988 10988 10986 10985 10985 10986 10987 10989 10990 10990 10990 10989 10989 10988
10960 10961 10962 10964 10964 10965 10966 10967 10968 10969 10969 10969 10970 10971 10971 10973 10974 10975 10976 10977 10978 10979 10980 10980 10981 10981 10980 10982 10983 10983 10982 10981 10981 10981 10983 10985 10986 10986 10986 10986 10985 10985
10956 10957 10958 10960 10960 10961 10962 10963 10964 10965 10965 10966 10966 10967 10967 10968 10970 10971 10971 10972 10973 10975 10976 10976 10976 10976 10976 10976 10977 10978 10977 10977 10977 10977 10979 10981 10982 10983 10982 10982 10981 10981
10951 10953 10954 10955 10956 10957 10959 10959 10960 10960 10961 10962 10963 10963 10964 10964 10965 10966 10967 10968 10969 10970 10971 10971 10972 10972 10971 10972 10973 10974 10974 10974 10973 10974 10975 10977 10979 10979 10979 10978 10978 10978